Regional Weather Roundup
Issued by NWS

Home | Current Version | Previous Version | Text Only | Print | Product List | Glossary Off
Versions: 1 2 3 4 5 6 7 8 9 10 11 12 13 14 15 16 17 18 19 20 21 22 23 24 25 26 27 28 29 30 31 32 33 34 35 36 37 38 39 40 41 42 43 44 45 46 47 48 49 50

000
ASUS43 KBIS 222320
RWRND

NORTH DAKOTA REGIONAL WEATHER ROUNDUP
NATIONAL WEATHER SERVICE BISMARCK ND
600 PM CDT TUE JUL 22 2014

NOTE: "FAIR" INDICATES FEW OR NO CLOUDS BELOW 12,000 FEET WITH NO
SIGNIFICANT WEATHER AND/OR OBSTRUCTIONS TO VISIBILITY.


NDZ001>003-009>011-017-230000-
NORTHWEST NORTH DAKOTA

CITY           SKY/WX    TMP DP  RH WIND       PRES   REMARKS
WILLISTON      MOSUNNY   86  50  28 NW12      30.18R
MINOT          CLOUDY    77  60  55 NE5       30.20R
MINOT AFB      MOSUNNY   78  60  55 E5        30.19S
$$

NDZ018>021-031>035-040>046-230000-
SOUTHWEST NORTH DAKOTA

CITY           SKY/WX    TMP DP  RH WIND       PRES   REMARKS
BISMARCK       MOSUNNY   81  59  47 VRB3      30.20S
DICKINSON      MOSUNNY   78  59  51 E7        30.20S
GARRISON         N/A     78  61  55 SE3       30.20S
HETTINGER ARPT SUNNY     82  58  43 E10       30.21S
$$

NDZ004>008-012>016-024-026-027-054-230000-
NORTHEAST NORTH DAKOTA

CITY           SKY/WX    TMP DP  RH WIND       PRES   REMARKS
GRAND FORKS    MOSUNNY   76  58  53 N12       30.17R
GRND FRKS AFB  SUNNY     76  59  55 N10       30.19R
DEVILS LAKE    MOSUNNY   75  57  53 NE5       30.19S
$$

NDZ022-023-025-028>030-036>039-047>053-230000-
SOUTHEAST NORTH DAKOTA

CITY           SKY/WX    TMP DP  RH WIND       PRES   REMARKS
FARGO          SUNNY     78  58  49 N14       30.17R
JAMESTOWN      MOSUNNY   79  57  46 N9        30.20R
$$



USA.gov is the U.S. government's official web portal to all federal, state and local government web resources and services.